Weather History for LHKE - October, 2012

Change the Weather History Date:

Sunday, October 7, 2012

  Actual Average (LHBP) Record (LHBP)
Temperature  
Mean Temperature 60 °F -  
Max Temperature 71 °F 64 °F 78 °F (1997)
Min Temperature 48 °F 45 °F 35 °F (2006)
Degree Days  
Heating Degree Days 4    
Growing Degree Days 10 (Base 50)    
Moisture  
Dew Point 55 °F    
Average Humidity 82    
Maximum Humidity 100    
Minimum Humidity 60    
Precipitation  
Precipitation 0.00 in - - ()
Sea Level Pressure  
Sea Level Pressure 29.88 in    
Wind  
Wind Speed 5 mph ()    
Max Wind Speed 31 mph    
Max Gust Speed 52 mph    
Visibility 5.2 miles    
Events Fog , Rain , Thunderstorm    
Averages and records for this station are not official NWS values.
T = Trace of Precipitation, MM = Missing Value Source: Averaged Metar Reports

Daily Weather History Graph

Daily Weather History Graph

Search for Another Location

Airport or City:

Trip Planner

Search our weather history database for the weather conditions in past years. The results will help you decide how hot, cold, wet, or windy it might be!

Date:

Astronomy

Oct. 07, 2012 Rise Set
Actual Time 6:48 AM CEST 6:08 PM CEST
Civil Twilight 6:17 AM CEST 6:38 PM CEST
Nautical Twilight 5:42 AM CEST 7:13 PM CEST
Astronomical Twilight 5:07 AM CEST 7:49 PM CEST
Moon 10:47 PM CEST (10/7) 1:29 PM CEST (10/7)
Length of Visible Light 12h 21m
Length of Day
11h 20m
Waning Gibbous, 58% of the Moon is Illuminated
Oct 7
Waning Gibbous
Oct 8
Last Quarter
Oct 15
New
Oct 22
First Quarter
Oct 29
Full

Hourly Weather History & Observations

Time (CEST) Temp. Dew Point Humidity Pressure Visibility Wind Dir Wind Speed Gust Speed Precip Events Conditions
12:15 AM 55.4 °F 51.8 °F 88% 30.01 in - SSW 2.2 mph - N/A   Clear
12:45 AM 57.2 °F 51.8 °F 82% 29.98 in - SSW 4.5 mph - N/A   Clear
1:15 AM 57.2 °F 51.8 °F 82% 29.98 in - SSW 4.5 mph - N/A   Clear
1:45 AM 57.2 °F 51.8 °F 82% 29.98 in - SSW 4.5 mph - N/A   Clear
2:15 AM 57.2 °F 51.8 °F 82% 29.98 in - SSW 4.5 mph - N/A   Clear
2:45 AM 57.2 °F 51.8 °F 82% 29.98 in - SSW 4.5 mph - N/A   Clear
3:15 AM 57.2 °F 53.6 °F 88% 29.98 in - SW 4.5 mph - N/A   Clear
3:45 AM - - N/A% - 3.1 mi SW 4.5 mph - N/A Fog Clear
4:15 AM 57.2 °F 53.6 °F 88% 29.95 in - SW 6.7 mph - N/A   Clear
4:45 AM 57.2 °F 53.6 °F 88% 29.95 in - SW 6.7 mph - N/A   Clear
5:15 AM 55.4 °F 53.6 °F 94% 29.95 in - SW 2.2 mph - N/A   Clear
5:45 AM 55.4 °F 53.6 °F 94% 29.95 in - WSW 2.2 mph - N/A   Clear
6:15 AM 55.4 °F 55.4 °F 100% 29.95 in - West 4.5 mph - N/A   Clear
6:45 AM - - N/A% - 3.1 mi WSW 4.5 mph - N/A Fog Clear
7:15 AM 55.4 °F 55.4 °F 100% 29.95 in 5.0 mi West 2.2 mph - N/A   Unknown
7:45 AM 57.2 °F 55.4 °F 94% 29.95 in 5.0 mi West 4.5 mph - N/A   Unknown
8:15 AM 57.2 °F 55.4 °F 94% 29.95 in 5.0 mi West 2.2 mph - N/A   Unknown
8:45 AM 57.2 °F 55.4 °F 94% 29.95 in 5.0 mi West 2.2 mph - N/A   Unknown
9:15 AM 59.0 °F 57.2 °F 94% 29.95 in 4.3 mi WSW 2.2 mph - N/A   Unknown
9:45 AM - - N/A% - 3.1 mi SW 8.9 mph - N/A Rain , Thunderstorm Rain Showers
10:15 AM 60.8 °F 57.2 °F 88% 29.92 in 5.0 mi West 6.7 mph - N/A   Unknown
10:45 AM 62.6 °F 57.2 °F 82% 29.92 in 5.0 mi West 6.7 mph - N/A   Unknown
11:15 AM 62.6 °F 57.2 °F 82% 29.92 in - WNW 2.2 mph - N/A   Clear
11:45 AM 62.6 °F 57.2 °F 82% 29.89 in - West 2.2 mph - N/A   Clear
12:15 PM 64.4 °F 57.2 °F 77% 29.89 in - Calm Calm - N/A   Clear
12:45 PM - - N/A% - 3.7 mi SW 8.9 mph - N/A Rain Rain
1:15 PM 66.2 °F 57.2 °F 73% 29.89 in - WSW 2.2 mph - N/A   Clear
1:45 PM 66.2 °F 57.2 °F 73% 29.86 in - WSW 2.2 mph - N/A   Clear
2:15 PM 68.0 °F 57.2 °F 68% 29.86 in - WSW 4.5 mph - N/A   Clear
2:45 PM 68.0 °F 57.2 °F 68% 29.83 in - SSW 2.2 mph - N/A   Clear
3:15 PM 69.8 °F 57.2 °F 64% 29.83 in - SSW 4.5 mph - N/A   Clear
3:45 PM - - N/A% - 6.2 mi SW 8.9 mph - N/A   Mostly Cloudy
4:15 PM 71.6 °F 57.2 °F 60% 29.80 in - SW 2.2 mph - N/A   Clear
4:45 PM 69.8 °F 55.4 °F 60% 29.77 in - South 2.2 mph - N/A   Clear
5:15 PM 68.0 °F 57.2 °F 68% 29.77 in 6.2 mi SSE 2.2 mph - N/A   Mostly Cloudy
5:28 PM 68.0 °F 57.2 °F 68% 29.77 in 6.2 mi South 4.5 mph - N/A Rain Light Rain Showers
5:33 PM 66.2 °F 57.2 °F 73% 29.77 in 6.2 mi South 4.5 mph - N/A Rain , Thunderstorm Rain Showers
5:45 PM 66.2 °F 59.0 °F 78% 29.77 in 6.2 mi South 4.5 mph - N/A Thunderstorm Mostly Cloudy
6:15 PM 64.4 °F 60.8 °F 88% 29.77 in 6.2 mi South 2.2 mph - N/A   Mostly Cloudy
6:45 PM - - N/A% - 6.2 mi WNW 22.4 mph 38.0 mph N/A   Mostly Cloudy
7:02 PM 64.4 °F 60.8 °F 88% 29.77 in 6.2 mi SW 4.5 mph - N/A Rain Rain Showers
7:15 PM 64.4 °F 59.0 °F 83% 29.74 in 6.2 mi WSW 4.5 mph - N/A Rain Light Rain Showers
7:34 PM 66.2 °F 57.2 °F 73% 29.74 in 6.2 mi WSW 15.7 mph 44.7 mph N/A Rain Rain Showers
7:38 PM 64.4 °F 59.0 °F 83% 29.74 in 3.1 mi West 15.7 mph 51.5 mph N/A Rain Rain Showers
7:45 PM 59.0 °F 57.2 °F 94% 29.77 in 3.1 mi West 31.3 mph 51.5 mph N/A Rain Rain Showers
8:15 PM 59.0 °F 53.6 °F 82% 29.80 in 6.2 mi NNW 17.9 mph 29.1 mph N/A   Mostly Cloudy
8:45 PM 59.0 °F 53.6 °F 82% 29.83 in 6.2 mi NW 17.9 mph 29.1 mph N/A   Mostly Cloudy
9:15 PM 55.4 °F 51.8 °F 88% 29.86 in 6.2 mi WNW 20.1 mph 38.0 mph N/A   Mostly Cloudy
9:45 PM - - N/A% - 6.2 mi NW 15.7 mph - N/A   Mostly Cloudy
10:15 PM 51.8 °F 46.4 °F 82% 29.89 in 6.2 mi WNW 17.9 mph 31.3 mph N/A   Mostly Cloudy
10:45 PM 50.0 °F 46.4 °F 87% 29.92 in - WNW 20.1 mph 31.3 mph N/A   Clear
11:45 PM 48.2 °F 42.8 °F 82% 29.95 in - WNW 20.1 mph 33.6 mph N/A   Clear